Location: Greenwich
(51.4790°N, 0.0090°E)
Time: 16:51:59
(UTC+01:00)

Altair - All Passes

Search period start: 23 June 2025 00:00
Search period end: 03 July 2025 00:00
Orbit: 1502 x 1682 km, 47.2° (Epoch: 23 June)

Date Brightness Start Highest point End Pass type
(mag) Time Alt. Az. Time Alt. Az. Time Alt. Az.
23 Jun - 00:56:33 10° WSW 01:05:41 66° S 01:15:08 10° E visible
23 Jun - 03:00:42 10° W 03:09:55 64° SSW 03:19:30 10° ESE visible
23 Jun - 05:05:13 10° W 05:13:39 37° SW 05:22:21 10° SSE daylight
23 Jun - 07:12:57 10° WSW 07:16:10 12° SW 07:19:26 10° SW daylight
23 Jun - 20:31:36 10° SE 20:34:28 12° SE 20:37:21 10° ESE daylight
23 Jun - 22:28:42 10° SSW 22:36:51 38° SE 22:45:10 10° E visible
24 Jun - 00:31:24 10° WSW 00:40:30 65° SSE 00:49:53 10° E visible
24 Jun - 02:35:31 10° W 02:44:44 66° SSW 02:54:17 10° ESE visible
24 Jun - 04:40:00 10° W 04:48:31 39° SW 04:57:20 10° SSE daylight
24 Jun - 06:47:01 10° W 06:51:08 14° SW 06:55:20 10° SSW daylight
24 Jun - 20:08:24 10° SE 20:09:28 10° ESE 20:10:32 10° ESE daylight
24 Jun - 22:03:45 10° SSW 22:11:45 35° SE 22:19:54 10° E visible
25 Jun - 00:06:15 10° WSW 00:15:18 63° SSE 00:24:39 10° E visible
25 Jun - 02:10:20 10° W 02:19:32 67° S 02:29:04 10° ESE visible
25 Jun - 04:14:46 10° W 04:23:23 41° SSW 04:32:17 10° SSE daylight
25 Jun - 06:21:16 10° W 06:26:05 15° SW 06:31:00 10° SSW daylight
25 Jun - 21:38:49 10° SSW 21:46:39 33° SE 21:54:37 10° E daylight
25 Jun - 23:41:08 10° WSW 23:50:08 62° SSE 23:59:24 10° E visible
26 Jun - 01:45:09 10° W 01:54:20 68° S 02:03:51 10° ESE visible
26 Jun - 03:49:33 10° W 03:58:14 44° SSW 04:07:13 10° SE visible
26 Jun - 05:55:40 10° W 06:01:02 17° SW 06:06:32 10° SSW daylight
26 Jun - 21:13:55 10° SSW 21:21:34 31° SE 21:29:20 10° E daylight
26 Jun - 23:16:01 10° WSW 23:24:58 60° SSE 23:34:10 10° E visible
27 Jun - 01:19:58 10° W 01:29:08 68° S 01:38:38 10° ESE visible
27 Jun - 03:24:20 10° W 03:33:05 46° SSW 03:42:08 10° SE visible
27 Jun - 05:30:08 10° W 05:35:59 18° SW 05:41:57 10° SSW daylight
27 Jun - 20:49:03 10° SSW 20:56:29 29° SE 21:04:01 10° E daylight
27 Jun - 22:50:53 10° SW 22:59:48 58° SSE 23:08:56 10° E visible
28 Jun - 00:54:47 10° W 01:03:56 69° S 01:13:25 10° ESE visible
28 Jun - 02:59:08 10° W 03:07:56 48° SSW 03:17:02 10° SE visible
28 Jun - 05:04:41 10° W 05:10:55 20° SW 05:17:18 10° S daylight
28 Jun - 20:24:12 10° S 20:31:25 27° SE 20:38:42 10° E daylight
28 Jun - 22:25:47 10° SW 22:34:39 56° SSE 22:43:42 10° E visible
29 Jun - 00:29:37 10° W 00:38:45 69° S 00:48:11 10° ESE visible
29 Jun - 02:33:56 10° W 02:42:47 50° SSW 02:51:55 10° SE visible
29 Jun - 04:39:16 10° W 04:45:51 22° SW 04:52:35 10° S daylight
29 Jun - 19:59:24 10° S 20:06:21 25° SE 20:13:21 10° E daylight
29 Jun - 22:00:41 10° SW 22:09:29 54° SSE 22:18:29 10° E visible
30 Jun - 00:04:26 10° W 00:13:34 69° S 00:22:58 10° E visible
30 Jun - 02:08:44 10° W 02:17:38 52° SSW 02:26:48 10° SE visible
30 Jun - 04:13:54 10° W 04:20:46 23° SW 04:27:49 10° S daylight
30 Jun - 19:34:38 10° S 19:41:18 23° SE 19:47:59 10° E daylight
30 Jun - 21:35:36 10° SW 21:44:21 52° SSE 21:53:15 10° E daylight
30 Jun - 23:39:15 10° W 23:48:22 69° S 23:57:44 10° E visible
01 Jul - 01:43:33 10° W 01:52:28 54° SSW 02:01:40 10° SE visible
01 Jul - 03:48:34 10° W 03:55:41 25° SW 04:03:01 10° S visible
01 Jul - 19:09:54 10° S 19:16:15 21° SE 19:22:36 10° E daylight
01 Jul - 21:10:31 10° SW 21:19:12 50° SSE 21:28:01 10° E daylight
01 Jul - 23:14:05 10° WSW 23:23:11 69° S 23:32:31 10° E visible
02 Jul - 01:18:22 10° W 01:27:17 56° SSW 01:36:31 10° SE visible
02 Jul - 03:23:15 10° W 03:30:36 27° SW 03:38:10 10° S visible
02 Jul - 18:45:14 10° S 18:51:12 19° SE 18:57:10 10° E daylight
02 Jul - 20:45:27 10° SW 20:54:04 48° SSE 21:02:47 10° E daylight
02 Jul - 22:48:54 10° WSW 22:58:00 69° S 23:07:17 10° E visible
